Flag for Italy Weather past 2 weeks in Naples, Italy

Now
61 °F

Sunny.


Feels Like: 61 °F
Forecast: 57 / 69 °F
Wind: No wind

Location: Naples / Capodichino


UV Index: 5 (Moderate)

Visibility: 10 mi


Pressure: 29.89 "Hg

Humidity: 77%

Dew point: 54 °F

Location of NaplesLocation

Historic Weather in Naples

°F

Naples temperature yesterday

Maximum temperature yesterday: 68 °F (at 3:20 PM)
Minimum temperature yesterday: 59 °F (at 5:50 AM)
Average temperature yesterday: 62 °F

Past Weeks' High & Low Weather Summary

 TemperatureHumidityPressure
High77 °F (Apr 21, 1:20 PM)94% (Apr 9, 7:20 AM)30.09 "Hg (Apr 9, 7:20 AM)
Low45 °F (Apr 15, 8:50 PM)23% (Apr 10, 2:50 PM)29.62 "Hg (Apr 21, 4:50 AM)
Average59 °F67%29.91 "Hg
* Reported Apr 9 7:20 AM — Apr 24 7:50 AM, Naples, Weather by CustomWeather, © 2014

Note: Actual official high and low records may vary slightly from our data, if they occured in-between our weather recording intervals... More about our weather records

Advertising

Historic Weather Conditions — Data for Previous 24 hours

 ConditionsComfort  
Time TempWeatherWind HumidityBarometerVisibility
7:50 AM
Apr 24
61 °FSunny.No wind77%29.89 "Hg10 mi
7:20 AM55 °FSunny.2 mph88%29.89 "Hg10 mi
6:50 AM54 °FClear.3 mph94%29.89 "Hg10 mi
6:20 AM52 °FClear.2 mph94%29.89 "Hg10 mi
5:50 AM50 °FPassing clouds.2 mph94%29.86 "HgN/A
5:20 AM52 °FPassing clouds.1 mph94%29.86 "HgN/A
4:50 AM54 °FPassing clouds.2 mph88%29.86 "HgN/A
4:20 AM54 °FPassing clouds.2 mph88%29.86 "HgN/A
3:50 AM54 °FPassing clouds.2 mph88%29.86 "HgN/A
3:20 AM55 °FPassing clouds.3 mph82%29.89 "HgN/A
2:50 AM55 °FPassing clouds.1 mph82%29.89 "HgN/A
2:20 AM55 °FPassing clouds.2 mph88%29.89 "HgN/A
1:50 AM57 °FPassing clouds.3 mph82%29.89 "HgN/A
1:20 AM55 °FPassing clouds.3 mph88%29.89 "HgN/A
12:50 AM55 °FPassing clouds.2 mph88%29.89 "HgN/A
12:20 AM57 °FPassing clouds.5 mph82%29.89 "HgN/A
11:50 PM
Apr 23
59 °FPassing clouds.3 mph77%29.89 "HgN/A
11:20 PM61 °FPassing clouds.6 mph72%29.89 "HgN/A
10:50 PM59 °FPassing clouds.6 mph77%29.89 "HgN/A
10:20 PM61 °FPassing clouds.5 mph72%29.89 "HgN/A
9:50 PM61 °FPassing clouds.5 mph72%29.89 "HgN/A
9:20 PM61 °FPassing clouds.6 mph72%29.89 "HgN/A
8:50 PM63 °FPassing clouds.9 mph68%29.89 "HgN/A
8:20 PM63 °FPartly sunny.8 mph68%29.89 "HgN/A
7:50 PM63 °FPartly sunny.9 mph68%29.89 "HgN/A
7:20 PM63 °FPartly sunny.9 mph68%29.86 "HgN/A
6:50 PM63 °FPartly sunny.7 mph73%29.86 "HgN/A
6:20 PM63 °FPartly sunny.10 mph73%29.86 "HgN/A
5:50 PM64 °FPartly sunny.8 mph73%29.83 "HgN/A
5:20 PM66 °FPartly sunny.10 mph64%29.83 "HgN/A
4:50 PM66 °FPartly sunny.10 mph64%29.83 "HgN/A
4:20 PM68 °FPartly sunny.12 mph60%29.83 "HgN/A
3:50 PM68 °FSmoke.N/A60%29.83 "HgN/A
3:20 PM68 °FPartly sunny.13 mph64%29.83 "HgN/A
2:50 PM66 °FPartly sunny.13 mph64%29.83 "HgN/A
2:20 PM64 °FPartly sunny.14 mph73%29.83 "HgN/A
1:50 PM64 °FPartly sunny.16 mph68%29.83 "HgN/A
1:20 PM64 °FPartly sunny.13 mph68%N/AN/A
12:50 PM63 °FPartly sunny.10 mph73%29.89 "HgN/A
12:20 PM64 °FPartly sunny.8 mph68%29.89 "HgN/A
11:50 AM63 °FPartly sunny.8 mph73%29.89 "HgN/A
11:20 AM63 °FPartly sunny.10 mph73%29.89 "HgN/A
10:50 AM61 °FDrizzle. Broken clouds.14 mph77%29.89 "HgN/A
10:20 AM61 °FLight rain. Broken clouds.12 mph77%29.89 "Hg5 mi
9:50 AM61 °FLight rain. Broken clouds.9 mph83%29.89 "Hg4 mi
9:20 AM59 °FLight rain. Broken clouds.8 mph94%29.89 "Hg4 mi
8:50 AM59 °FLight rain. Broken clouds.7 mph88%29.89 "Hg4 mi
8:20 AM59 °FLight rain. Broken clouds.9 mph94%29.89 "Hg4 mi
Weather by CustomWeather, © 2014

See weather overview